User: anonymous   Login
Location: Laverne
(36.7100°N, 99.8930°W)
Time: 11:16:37
(UTC-06:00)
Language:

Iridium 32 - Orbit

View from above orbital plane
View from above orbital plane
View from above satellite
View from above satellite

Ground track
Ground track

The orbit data is extracted from the following two-line orbital elements,

1 24945U 97051B   16043.39898110  .00000384  00000-0  13007-3 0  9998
2 24945  86.3991 132.3067 0002101 101.7163 258.4269 14.34213863964074
Epoch (UTC): 12 February 2016 09:34:31
Eccentricity: 0.0002101
inclination: 86.3991°
perigee height: 776 km
apogee height: 779 km
right ascension of ascending node: 132.3067°
argument of perigee: 101.7163°
revolutions per day: 14.34213863
mean anomaly at epoch: 258.4269°
orbit number at epoch: 96407

The dashed part of the orbit path shows where the satellite is in the earth's shadow,  

DLR